Paso Robles, CA

9:55 PM PST on February 11, 2016 (GMT -0800)
Paso Robles Municipal

Weather History for KPRB - January, 2013

Change the Weather History Date:

Monday, January 14, 2013

  Actual Average Record
Temperature  
Mean Temperature 36 °F 47 °F  
Max Temperature 49 °F 59 °F 77 °F (2009)
Min Temperature 23 °F 35 °F 14 °F (2007)
Degree Days  
Heating Degree Days 29 18  
Month to date heating degree days 315 257  
Since 1 July heating degree days 1254 1381  
Cooling Degree Days 0 0  
Month to date cooling degree days 0 0  
Year to date cooling degree days 0 0  
Moisture  
Dew Point 22 °F    
Average Humidity 61    
Maximum Humidity 88    
Minimum Humidity 34    
Precipitation  
Precipitation 0.00 in 0.09 in 1.10 in (1978)
Month to date precipitation 0.43 1.25  
Year to date precipitation 0.43 1.25  
Since 1 July precipitation 3.64  
Sea Level Pressure  
Sea Level Pressure 30.33 in    
Wind  
Wind Speed 5 mph (East)    
Max Wind Speed 15 mph    
Max Gust Speed 17 mph    
Visibility 10 miles    
Events      
T = Trace of Precipitation, MM = Missing Value Source: NWS Daily Summary

Daily Weather History Graph

Daily Weather History Graph

Search for Another Location

Airport or City:

Trip Planner

Search our weather history database for the weather conditions in past years. The results will help you decide how hot, cold, wet, or windy it might be!

Date:

Astronomy

Jan. 14, 2013 Rise Set
Actual Time 7:11 AM PST 5:12 PM PST
Civil Twilight 6:43 AM PST 5:39 PM PST
Nautical Twilight 6:12 AM PST 6:11 PM PST
Astronomical Twilight 5:41 AM PST 6:41 PM PST
Moon 8:56 AM PST (1/14) 8:53 PM PST (1/14)
Length of Visible Light 10h 55m
Length of Day
10h 00m
Waxing Crescent, 12% of the Moon is Illuminated
Jan 14
Waxing Crescent
Jan 18
First Quarter
Jan 26
Full
Feb 3
Last Quarter
Feb 9
New

Hourly Weather History & Observations

Time (PST) Temp. Windchill Dew Point Humidity Pressure Visibility Wind Dir Wind Speed Gust Speed Precip Events Conditions
12:53 AM 28.0 °F - 24.1 °F 85% 30.22 in 10.0 mi Calm Calm - N/A   Clear
1:53 AM 26.1 °F 19.4 °F 21.9 °F 84% 30.25 in 10.0 mi SSE 5.8 mph - N/A   Clear
2:53 AM 26.1 °F 21.9 °F 21.9 °F 84% 30.27 in 10.0 mi NE 3.5 mph - N/A   Clear
3:53 AM 26.1 °F 20.5 °F 21.9 °F 84% 30.27 in 10.0 mi ESE 4.6 mph - N/A   Clear
4:53 AM 25.0 °F - 21.0 °F 85% 30.27 in 10.0 mi Calm Calm - N/A   Clear
5:53 AM 24.1 °F - 19.9 °F 84% 30.30 in 10.0 mi Calm Calm - N/A   Clear
6:53 AM 24.1 °F - 19.9 °F 84% 30.33 in 10.0 mi Calm Calm - N/A   Clear
7:53 AM 26.1 °F 18.4 °F 21.9 °F 84% 30.34 in 10.0 mi East 6.9 mph - N/A   Clear
8:53 AM 30.0 °F 26.5 °F 23.0 °F 75% 30.37 in 10.0 mi NNW 3.5 mph - N/A   Clear
10:53 AM 39.0 °F 35.7 °F 25.0 °F 57% 30.36 in 10.0 mi North 4.6 mph - N/A   Clear
11:53 AM 45.0 °F - 25.0 °F 46% 30.33 in 10.0 mi Calm Calm - N/A   Clear
12:53 PM 46.9 °F - 23.0 °F 39% 30.32 in 10.0 mi East 11.5 mph - N/A   Clear
2:53 PM 48.0 °F - 21.0 °F 34% 30.31 in 10.0 mi East 12.7 mph - N/A   Clear
3:53 PM 46.9 °F - 21.0 °F 36% 30.32 in 10.0 mi East 10.4 mph - N/A   Clear
4:53 PM 44.1 °F 37.4 °F 23.0 °F 43% 30.36 in 10.0 mi East 13.8 mph - N/A   Clear
5:53 PM 39.9 °F 34.5 °F 23.0 °F 51% 30.37 in 10.0 mi East 8.1 mph - N/A   Clear
6:53 PM 37.9 °F 31.5 °F 23.0 °F 55% 30.38 in 10.0 mi East 9.2 mph - N/A   Clear
7:53 PM 36.0 °F 29.6 °F 23.0 °F 59% 30.37 in 10.0 mi ESE 8.1 mph - N/A   Clear
8:53 PM 35.1 °F 32.2 °F 21.9 °F 59% 30.39 in 10.0 mi SSE 3.5 mph - N/A   Clear
9:53 PM 35.1 °F 31.0 °F 21.9 °F 59% 30.39 in 10.0 mi East 4.6 mph - N/A   Clear
10:53 PM 32.0 °F 27.5 °F 24.1 °F 73% 30.39 in 10.0 mi ESE 4.6 mph - N/A   Clear
11:53 PM 32.0 °F - 23.0 °F 69% 30.40 in 10.0 mi Calm Calm - N/A   Clear